Погода в Малой Шильне

Россия / Республика Татарстан     55°48′07″N   52°32′01″E
темп.,
°C
ветер,
м/с
пор.,
м/с
влажн.,
%
обл.,
%
осадки,
мм/ч
давл.,
гПа
погр.,
м
9 мая, вс
вс900:00+11юв22810 0.0 101618
03:00+10юв35826 0.0 101677
06:00+13юв36720 0.0 1016185
09:00+19ююв45500 0.0 1016724
12:00+22ююв45355 0.0 10152307
15:00+23юв453310 0.0 10152528
18:00+19вюв4851100 0.0 1015239
21:00+17юв51253100 0.0 1016329
10 мая, пн
пн1000:00+15юв4125591 0.0 1016250
03:00+13юв3564100 0.0 101885
06:00+16юв366095 0.0 1019195
09:00+20юв4546100 0.0 1020457
12:00+23юв3335100 0.0 10201697
15:00+23вюв323294 0.0 10212245
18:00+20вюв345099 0.0 102268
21:00+17вюв2254100 0.0 102318
11 мая, вт
вт1100:00+15св1159100 0.0 102411
03:00+13св3570100 0.0 102586
06:00+15всв2368100 0.0 1026115
09:00+20всв234997 0.0 1027590
12:00+23в223851 0.0 10271538
15:00+24вюв223211 0.0 10272445
18:00+22св234884 0.0 102871
21:00+18всв386475 0.0 1029225
12 мая, ср
ср1200:00+15в277811 0.0 1030190
03:00+13всв37891 0.0 1030139
06:00+16в46784 0.0 1031293
09:00+20в45575 0.0 1031715
12:00+23в33475 0.0 10301621
15:00+23св224696 0.0 10291336
18:00+21св365614 0.0 1029190
21:00+16всв35555 0.0 102967
13 мая, чт
чт1300:00+14в22618 0.0 102923
03:00+12в22643 0.0 102914
06:00+15в24574 0.0 1029174
09:00+20вюв34443 0.0 1029726
12:00+24юв33352 0.0 10281466
15:00+25юв23310 0.0 10271755
18:00+22вюв22457 0.0 102622
21:00+18вюв22575 0.0 102614